RH
54 54 51 46 49 55 55 53 54 57 56 64 65 66 65 61 55 47 40 37 34 33 31 30 28 26 24 24 22 21 20 19 18 17 16 16 15 14
74 74 63 53 58 63 65 62 71 75 79 85 80 85 88 74 65 56 48 39 35 32 29 28 26 25 25 24 24 23 21 21 21 20 20 20 21 23
97 98 94 94 81 88 93 95 93 92 95 96 92 88 85 80 72 56 42 38 32 29 28 28 26 27 27 30 27 27 27 31 32 34 37 33 35 34
98 97 98 96 96 96 97 96 96 92 95 97 94 92 90 92 96 75 61 55 34 33 39 43 45 46 44 45 45 45 46 48 53 53 54 51 52 48
97 95 97 96 96 98 100 96 95 95 96 96 96 96 77 50 41 40 34 34 40 51 61 62 71 63 64 60 61 61 63 67 71 66 64 67 63 63
95 96 97 96 96 98 98 97 94 95 96 96 96 67 44 38 36 40 49 61 72 76 76 78 80 87 82 72 76 75 76 75 76 73 70 68 65 61
93 94 98 96 93 98 98 97 97 96 96 96 81 45 37 37 55 72 81 80 85 90 98 91 88 85 86 86 86 85 79 70 63 59 58 55 51 48
93 95 96 96 96 97 96 96 96 96 96 96 46 38 44 66 84 86 82 82 91 94 92 88 93 97 85 70 67 64 61 58 56 55 53 52 51 49
96 95 96 96 96 96 96 96 96 96 95 52 42 59 80 87 80 81 88 95 95 97 95 88 78 73 69 66 66 66 67 67 66 66 64 63 61 59
95 95 96 96 96 96 96 96 96 95 80 55 72 91 94 90 88 92 92 88 83 77 77 77 75 73 71 71 72 72 69 67 65 62 58 51 39 22
95 95 96 96 96 96 96 96 95 92 68 83 96 98 96 90 86 84 83 85 90 91 89 81 76 76 76 75 73 70 66 60 52 34 14 5 4 4
94 96 96 96 96 96 96 96 93 82 88 100 100 98 92 88 88 90 95 95 93 90 87 84 82 79 76 74 68 63 48 26 9 5 5 5 5 5
95 96 95 95 95 96 96 96 92 92 98 100 98 97 96 97 97 97 95 93 92 92 90 86 82 78 74 68 55 35 13 6 6 6 6 5 6 6
94 95 95 96 96 96 96 97 99 100 100 98 97 97 97 97 96 96 94 92 92 91 88 84 80 74 68 56 33 13 7 8 7 6 7 7 8 7
95 96 96 96 97 96 97 100 100 98 98 97 97 97 97 96 96 96 95 93 92 90 88 85 78 71 61 40 14 7 7 8 8 8 7 8 7 7
96 96 96 96 97 97 97 98 98 97 98 98 97 96 96 96 96 95 94 91 89 89 88 84 77 69 48 25 9 8 9 9 9 8 7 8 7 7
96 96 91 84 98 100 99 98 98 99 98 96 96 97 97 96 96 95 92 87 86 90 88 82 73 44 17 11 10 10 9 9 10 10 8 7 6 7
96 96 87 66 74 79 83 88 94 97 98 99 98 98 97 96 96 94 92 88 89 89 84 79 36 11 13 13 12 11 11 11 10 8 8 10 12 11
96 96 95 94 60 42 30 22 21 34 64 91 98 99 98 97 95 96 94 90 88 89 86 66 12 12 13 13 13 14 12 9 8 8 9 12 14 19
96 96 96 96 95 90 64 27 16 13 13 30 71 95 99 97 97 97 94 90 89 90 85 27 13 13 14 15 15 11 9 8 9 12 15 18 22 26
97 97 97 96 96 96 93 52 30 19 14 14 21 51 84 96 96 96 95 92 91 91 70 14 14 14 15 14 10 9 9 10 11 13 14 16 19 24
96 96 96 95 96 96 95 66 38 24 20 23 22 32 63 86 95 96 95 95 93 90 24 14 15 16 14 10 8 8 8 9 10 11 11 12 14 15
96 96 96 96 96 96 96 69 61 48 25 28 24 27 57 86 94 96 95 96 94 59 16 16 16 14 10 8 8 9 11 14 18 24 21 20 21 22
Wind_Speed
30 30 29 28 26 25 23 22 19 18 16 17 14 13 17 18 18 19 19 20 18 20 22 21 22 24 24 26 27 26 28 29 29 28 28 28 29 31
32 31 31 29 28 25 23 20 20 22 19 16 16 20 24 26 26 24 23 22 21 22 24 25 24 25 25 25 26 27 27 27 25 25 25 25 26 26
33 34 38 34 34 37 40 27 27 25 18 16 22 26 30 35 28 25 23 22 23 23 24 24 25 24 24 23 25 24 24 22 21 21 20 21 21 21
30 30 33 39 42 44 40 42 34 24 18 25 31 35 30 23 26 25 25 26 25 23 23 23 22 21 21 21 20 19 18 16 16 16 16 16 16 17
30 30 28 27 25 26 35 34 32 27 22 29 29 23 23 24 24 23 24 23 22 20 18 18 16 19 17 18 15 14 13 13 12 13 13 13 14 14
31 31 29 24 25 28 30 33 36 29 29 27 24 21 23 23 22 20 19 17 16 16 16 15 14 16 15 13 12 10 10 10 11 11 12 13 14 16
28 26 24 21 20 24 32 38 39 28 27 27 20 22 21 19 16 14 13 14 15 15 15 15 14 12 11 8 8 9 9 10 12 13 15 16 17 18
23 21 18 18 21 21 24 24 21 24 27 20 21 19 17 14 11 11 11 10 10 12 11 10 8 8 8 8 9 10 12 13 14 16 17 19 20 21
16 15 16 17 20 21 21 23 26 27 18 19 17 14 11 10 10 10 10 9 8 7 7 7 7 8 9 10 11 13 14 16 17 19 20 21 22 23
12 12 12 15 18 18 19 19 17 15 14 17 13 11 10 9 8 8 8 7 7 6 7 8 9 11 12 13 14 16 17 18 20 21 22 24 25 26
15 14 14 13 15 15 13 12 10 11 14 12 11 10 9 9 8 7 7 8 8 9 9 10 11 12 13 15 17 18 20 21 23 24 25 26 26 24
15 14 15 15 13 12 12 10 10 12 11 11 11 11 10 10 9 8 8 9 9 10 10 11 12 14 15 16 18 20 21 23 24 24 20 16 15 16
14 15 13 12 12 13 13 11 12 11 11 12 12 12 12 11 10 9 10 10 10 11 12 13 13 14 16 17 19 20 21 21 18 15 13 13 13 13
14 11 10 12 14 15 13 12 12 12 11 12 13 13 12 11 11 10 10 10 11 12 12 13 14 15 16 17 19 19 17 14 14 12 10 11 12 14
14 12 12 13 13 14 12 11 12 12 11 12 12 13 11 11 10 10 9 10 11 12 13 13 14 15 17 18 18 16 13 10 9 10 10 12 14 15
12 13 13 10 12 12 12 11 11 11 11 11 12 12 12 11 10 9 9 10 11 12 13 14 15 17 18 17 14 11 8 8 9 11 10 11 13 15
12 16 12 11 12 12 11 11 11 10 11 12 12 12 12 11 10 10 9 11 12 12 13 15 17 19 18 14 10 8 7 8 9 11 13 14 15 18
13 17 14 11 11 10 9 9 10 11 11 12 12 12 12 12 12 11 12 12 12 13 14 17 19 14 10 8 7 6 6 6 7 9 11 15 19 22
13 15 17 16 10 8 8 7 7 8 10 12 12 13 13 14 14 13 13 13 13 13 15 17 13 9 7 6 5 5 6 7 9 10 13 17 19 23
12 13 14 14 13 11 7 6 6 7 9 11 12 14 15 15 14 14 14 14 13 14 15 16 9 7 6 5 5 6 6 8 10 12 14 16 18 21
11 13 13 12 12 10 8 7 7 8 8 9 12 14 15 15 14 15 14 13 13 14 16 11 7 6 5 5 4 5 6 8 10 12 12 14 14 16
14 14 14 14 14 13 11 9 8 9 9 9 10 12 13 13 14 13 13 13 13 14 14 7 5 6 5 4 5 8 10 12 15 18 20 22 24 24
15 15 16 14 15 16 14 11 10 10 10 10 10 12 12 12 13 13 12 12 13 15 9 6 5 6 5 5 6 8 9 11 14 18 23 25 27 29
Wind_Direction
268 267 265 261 258 258 256 251 251 253 250 255 262 271 278 283 284 278 274 272 274 271 268 267 266 269 270 272 273 275 273 273 276 276 275 277 280 282
268 267 265 259 254 250 245 248 247 242 241 255 263 271 274 285 282 277 276 278 276 276 278 276 276 274 274 275 274 272 273 275 275 274 274 275 277 278
272 272 263 257 259 248 241 231 239 235 242 259 270 276 282 284 271 271 273 276 278 278 278 279 278 280 280 278 278 277 276 278 277 276 277 276 277 277
271 275 274 267 261 260 262 251 234 234 248 269 274 277 273 273 264 264 269 271 276 275 274 274 276 278 279 279 279 277 278 278 276 278 280 280 279 281
268 269 267 263 265 271 252 236 237 240 256 264 271 266 270 270 270 267 267 268 267 267 266 267 269 274 275 275 274 271 269 268 269 273 276 276 277 279
269 269 268 265 262 260 252 248 242 241 257 268 265 269 268 267 266 266 264 257 253 255 259 264 262 266 272 276 275 274 268 267 272 274 275 278 278 277
273 270 261 256 257 257 250 243 247 247 257 263 264 267 266 265 263 259 253 252 250 252 252 258 261 260 271 266 268 274 276 277 279 281 281 281 282 282
275 263 252 252 254 252 248 237 235 249 258 253 262 265 264 257 253 251 251 246 240 247 254 243 248 257 263 271 275 281 284 286 286 285 286 285 284 283
272 259 251 248 247 245 241 243 249 248 243 256 254 247 242 243 245 239 235 236 234 229 227 236 252 266 273 279 282 282 283 286 287 286 285 285 285 284
280 266 256 245 242 236 231 232 236 234 247 250 232 228 228 230 221 210 207 210 214 226 239 252 262 270 277 283 286 287 288 287 287 286 286 287 287 288
274 261 247 234 220 212 217 222 227 242 245 228 218 216 214 213 206 205 213 225 237 247 255 262 270 278 284 287 289 290 290 291 291 291 292 293 295 296
277 261 237 212 203 208 220 226 230 234 226 215 214 210 210 213 217 226 241 248 252 256 265 273 278 282 285 288 290 292 294 295 296 298 301 302 303 303
269 243 226 211 199 204 221 224 227 222 214 211 215 216 219 224 234 244 249 253 260 266 271 276 279 284 288 293 296 299 300 300 300 301 303 305 305 306
260 241 219 213 210 213 224 225 221 214 211 213 218 220 221 228 236 243 249 257 264 270 274 278 284 291 296 301 303 306 305 302 301 304 308 308 308 307
260 248 222 205 208 216 223 215 207 211 213 214 215 220 226 233 240 247 255 266 273 277 282 286 293 300 305 308 308 306 301 298 297 304 310 309 311 314
244 228 201 198 204 206 205 205 208 213 214 215 220 226 231 237 244 252 264 275 280 285 289 294 301 306 306 303 299 294 295 301 306 308 312 315 316 316
233 214 185 198 193 196 203 208 212 214 217 224 228 230 234 240 246 255 268 279 287 290 294 303 307 306 299 291 284 285 296 308 311 316 322 321 321 321
229 206 181 188 188 191 196 205 213 219 224 227 231 233 237 243 252 261 272 283 290 294 301 309 315 310 301 287 278 288 301 311 317 319 323 328 327 325
236 233 206 186 188 188 195 208 221 228 231 231 232 236 240 248 256 263 273 284 290 295 303 316 311 305 301 299 299 304 311 317 321 327 333 334 333 329
238 234 227 220 202 201 212 235 249 252 248 244 240 239 243 250 257 264 274 282 288 294 308 314 298 295 292 292 296 309 315 324 330 333 338 339 337 330
238 230 230 238 234 226 228 251 268 272 262 255 251 248 248 250 256 264 272 279 285 298 312 301 289 286 279 283 296 312 318 314 318 324 332 337 338 335
224 232 233 235 243 242 240 253 271 279 272 269 263 254 249 250 254 260 267 276 288 303 309 281 280 273 274 289 315 321 321 326 330 332 337 338 341 344
237 234 236 236 245 247 244 249 268 280 277 275 271 260 252 251 253 258 267 276 292 307 289 270 263 260 270 295 312 315 321 323 326 329 331 334 338 341